Cecil Field, FL

2:43 AM EDT on August 17, 2017 (GMT -0400)
Cecil

Weather History for KVQQ - June, 2014

Change the Weather History Date:

Thursday, June 5, 2014

  Actual Average (KNIP) Record (KNIP)
Temperature  
Mean Temperature 74 °F -  
Max Temperature 89 °F 86 °F 100 °F (1998)
Min Temperature 59 °F 70 °F 69 °F (1997)
Cooling Degree Days 9    
Growing Degree Days 24 (Base 50)    
Moisture  
Dew Point 64 °F    
Average Humidity 78    
Maximum Humidity 100    
Minimum Humidity 46    
Precipitation  
Precipitation 0.00 in - - ()
Sea Level Pressure  
Sea Level Pressure 29.95 in    
Wind  
Wind Speed 2 mph (SW)    
Max Wind Speed 9 mph    
Max Gust Speed -    
Visibility 10 miles    
Events      
Averages and records for this station are not official NWS values.
T = Trace of Precipitation, MM = Missing Value Source: NWS Daily Summary

Daily Weather History Graph

Daily Weather History Graph

Search for Another Location

Airport or City:

Trip Planner

Search our weather history database for the weather conditions in past years. The results will help you decide how hot, cold, wet, or windy it might be!

Date:

Astronomy

Jun. 05, 2014 Rise Set
Actual Time 6:25 AM EDT 8:26 PM EDT
Civil Twilight 5:58 AM EDT 8:53 PM EDT
Nautical Twilight 5:25 AM EDT 9:27 PM EDT
Astronomical Twilight 4:50 AM EDT 10:02 PM EDT
Moon 1:17 PM EDT (6/5) 1:15 AM EDT (6/5)
Length of Visible Light 14h 55m
Length of Day
14h 00m
Waxing Crescent, 48% of the Moon is Illuminated
Jun 5
Waxing Crescent
Jun 5
First Quarter
Jun 13
Full
Jun 19
Last Quarter
Jun 27
New

Hourly Weather History & Observations

Time (EDT) Temp. Heat Index Dew Point Humidity Pressure Visibility Wind Dir Wind Speed Gust Speed Precip Events Conditions
12:15 AM 66.2 °F - 62.6 °F 88% 29.97 in 10.0 mi Calm Calm - N/A   Clear
12:35 AM 66.2 °F - 62.6 °F 88% 29.98 in 10.0 mi Calm Calm - N/A   Clear
1:15 AM 64.4 °F - 62.6 °F 94% 29.97 in 10.0 mi Calm Calm - N/A   Clear
1:35 AM 66.2 °F - 62.6 °F 88% 29.97 in 10.0 mi Calm Calm - N/A   Clear
1:55 AM 64.4 °F - 62.6 °F 94% 29.97 in 10.0 mi Calm Calm - N/A   Clear
2:15 AM 64.4 °F - 62.6 °F 94% 29.96 in 10.0 mi Calm Calm - N/A   Clear
2:35 AM 62.6 °F - 62.6 °F 100% 29.96 in 10.0 mi Calm Calm - N/A   Clear
2:55 AM 62.6 °F - 60.8 °F 94% 29.95 in 10.0 mi Calm Calm - N/A   Clear
3:15 AM 62.6 °F - 62.6 °F 100% 29.95 in 10.0 mi Calm Calm - N/A   Clear
3:35 AM 62.6 °F - 60.8 °F 94% 29.95 in 10.0 mi Calm Calm - N/A   Clear
3:55 AM 62.6 °F - 60.8 °F 94% 29.95 in 9.0 mi Calm Calm - N/A   Clear
4:15 AM 62.6 °F - 60.8 °F 94% 29.95 in 9.0 mi Calm Calm - N/A   Clear
4:35 AM 62.6 °F - 60.8 °F 94% 29.95 in 10.0 mi Calm Calm - N/A   Clear
4:55 AM 60.8 °F - 59.0 °F 94% 29.96 in 9.0 mi Calm Calm - N/A   Clear
5:15 AM 60.8 °F - 60.8 °F 100% 29.96 in 8.0 mi Calm Calm - N/A   Clear
5:35 AM 60.8 °F - 59.0 °F 94% 29.96 in 7.0 mi Calm Calm - N/A   Clear
5:55 AM 60.8 °F - 59.0 °F 94% 29.96 in 5.0 mi Calm Calm - N/A   Clear
6:15 AM 59.0 °F - 59.0 °F 100% 29.96 in 7.0 mi Calm Calm - N/A   Clear
6:35 AM 60.8 °F - 59.0 °F 94% 29.97 in 5.0 mi Calm Calm - N/A   Clear
6:50 AM 60.8 °F - 59.0 °F 94% 29.97 in 10.0 mi Calm Calm - N/A   Clear
7:50 AM 66.2 °F - 64.4 °F 94% 29.97 in 10.0 mi Calm Calm - N/A   Clear
8:50 AM 75.2 °F - 66.2 °F 73% 29.97 in 10.0 mi SSW 5.8 mph - N/A   Clear
9:50 AM 80.6 °F 82.7 °F 66.2 °F 61% 29.97 in 10.0 mi Variable 5.8 mph - N/A   Clear
10:50 AM 82.4 °F 84.6 °F 66.2 °F 58% 29.97 in 10.0 mi Variable 4.6 mph - N/A   Clear
11:50 AM 84.2 °F 86.6 °F 66.2 °F 55% 29.95 in 10.0 mi SW 5.8 mph - N/A   Clear
12:50 PM 84.2 °F 86.6 °F 66.2 °F 55% 29.95 in 10.0 mi SW 6.9 mph - N/A   Partly Cloudy
1:50 PM 87.8 °F 91.4 °F 68.0 °F 52% 29.92 in 10.0 mi SW 6.9 mph - N/A   Scattered Clouds
2:50 PM 87.8 °F 90.4 °F 66.2 °F 49% 29.88 in 10.0 mi SW 6.9 mph - N/A   Scattered Clouds
4:50 PM 89.6 °F 92.2 °F 66.2 °F 46% 29.87 in 10.0 mi SW 9.2 mph - N/A   Mostly Cloudy
5:50 PM 86.0 °F 87.3 °F 64.4 °F 48% 29.88 in 10.0 mi South 9.2 mph - N/A   Scattered Clouds
6:50 PM 87.8 °F 90.4 °F 66.2 °F 49% 29.89 in 10.0 mi SW 6.9 mph - N/A   Scattered Clouds
7:50 PM 84.2 °F 87.3 °F 68.0 °F 58% 29.91 in 10.0 mi SW 5.8 mph - N/A   Scattered Clouds
8:15 PM 82.4 °F 85.4 °F 68.0 °F 62% 29.90 in 10.0 mi Calm Calm - N/A   Clear
8:35 PM 80.6 °F 83.2 °F 68.0 °F 65% 29.90 in 10.0 mi South 3.5 mph - N/A   Clear
8:55 PM 78.8 °F - 68.0 °F 69% 29.90 in 10.0 mi South 4.6 mph - N/A   Clear
9:15 PM 78.8 °F - 68.0 °F 69% 29.91 in 10.0 mi South 5.8 mph - N/A   Clear
9:35 PM 80.6 °F 83.2 °F 68.0 °F 65% 29.93 in 10.0 mi SW 6.9 mph - N/A   Clear
9:55 PM 78.8 °F - 68.0 °F 69% 29.94 in 10.0 mi SW 5.8 mph - N/A   Clear
10:15 PM 78.8 °F - 68.0 °F 69% 29.96 in 10.0 mi WSW 6.9 mph - N/A   Clear
10:35 PM 78.8 °F - 68.0 °F 69% 29.97 in 10.0 mi SW 4.6 mph - N/A   Clear
10:55 PM 77.0 °F - 68.0 °F 74% 29.97 in 10.0 mi SW 5.8 mph - N/A   Clear
11:15 PM 77.0 °F - 68.0 °F 74% 29.98 in 10.0 mi Calm Calm - N/A   Clear
11:35 PM 77.0 °F - 68.0 °F 74% 29.97 in 10.0 mi SSW 4.6 mph - N/A   Clear
11:55 PM 75.2 °F - 68.0 °F 78% 29.96 in 10.0 mi SSW 5.8 mph - N/A   Clear